Data for 05/18/2017

Time Sea-Level Adjusted Pressure Absolute Pressure Temperature Relative Humidity Dew Point   
(mb) (inHg) (mb) (inHg) (C) (F) (%) (C) (F)
00:05 1017 30.03 846 24.98 0.2 32.3 94 -0.6 30.8
00:10 1017 30.03 846 24.98 0.3 32.5 94 -0.5 31.1
00:15 1017 30.03 846 24.98 0.4 32.6 94 -0.5 31.1
00:20 1017 30.03 846 24.98 0.4 32.7 94 -0.5 31.1
00:25 1017 30.03 846 24.98 0.4 32.7 94 -0.4 31.2
00:30 1017 30.03 846 24.98 0.4 32.8 94 -0.4 31.3
00:35 1017 30.03 846 24.98 0.5 32.9 94 -0.4 31.3
00:40 1017 30.03 846 24.98 0.5 32.8 94 -0.4 31.3
00:45 1017 30.03 847 25.01 0.5 32.9 94 -0.4 31.3
00:50 1017 30.03 847 25.01 0.5 32.9 94 -0.4 31.3
00:55 1017 30.03 847 25.01 0.4 32.8 94 -0.5 31.2
01:00 1017 30.03 847 25.01 0.5 32.8 94 -0.4 31.2
01:05 1017 30.03 847 25.01 0.5 33 94 -0.4 31.4
01:10 1017 30.03 846 24.98 0.6 33.1 94 -0.3 31.5
01:15 1017 30.03 846 24.98 0.6 33.1 94 -0.3 31.5
01:20 1017 30.03 846 24.98 0.5 32.9 93 -0.4 31.2
01:25 1017 30.03 846 24.98 0.4 32.8 93 -0.6 31
01:30 1017 30.03 846 24.98 0.4 32.7 94 -0.6 31
01:35 1017 30.03 846 24.98 0.4 32.7 93 -0.5 31
01:40 1017 30.03 847 25.01 0.4 32.7 93 -0.6 31
01:45 1017 30.03 847 25.01 0.4 32.6 93 -0.6 30.9
01:50 1017 30.03 847 25.01 0.3 32.6 94 -0.6 31
01:55 1017 30.03 847 25.01 0.3 32.6 94 -0.6 30.9
02:00 1017 30.03 846 24.98 0.3 32.6 94 -0.6 31
02:05 1017 30.03 846 24.98 0.3 32.6 94 -0.6 31
02:10 1017 30.03 846 24.98 0.3 32.6 94 -0.6 31
02:15 1017 30.03 847 25.01 0.4 32.7 94 -0.5 31.1
02:20 1018 30.06 847 25.01 0.4 32.8 94 -0.5 31.2
02:25 1018 30.06 847 25.01 0.5 32.9 94 -0.4 31.3
02:30 1018 30.06 847 25.01 0.6 33.1 94 -0.3 31.5
02:35 1018 30.06 847 25.01 0.8 33.4 93 -0.2 31.7
02:40 1018 30.06 847 25.01 0.9 33.6 93 -0.2 31.7
02:45 1018 30.06 847 25.01 1.1 34 92 -0.1 31.8
02:50 1018 30.06 847 25.01 1.4 34.5 91 0 32
02:55 1018 30.06 847 25.01 1.5 34.7 90 0 32
03:00 1018 30.06 847 25.01 1.6 34.8 89 -0 32
03:05 1018 30.06 847 25.01 1.6 34.9 90 0.1 32.1
03:10 1018 30.06 847 25.01 1.6 34.9 90 0.2 32.3
03:15 1018 30.06 847 25.01 1.6 35 90 0.2 32.4
03:20 1018 30.06 847 25.01 1.6 34.9 90 0.2 32.4
03:25 1018 30.06 847 25.01 1.6 34.9 91 0.3 32.5
03:30 1018 30.06 847 25.01 1.6 34.9 91 0.3 32.5
03:35 1018 30.06 847 25.01 1.6 34.9 91 0.3 32.5
03:40 1018 30.06 847 25.01 1.7 35 90 0.2 32.4
03:45 1018 30.06 847 25.01 1.7 35 90 0.1 32.2
03:50 1017 30.03 847 25.01 1.5 34.8 90 0 32
03:55 1017 30.03 846 24.98 0.9 33.6 91 -0.4 31.2
04:00 1017 30.03 847 25.01 0.6 33 92 -0.6 30.9
04:05 1017 30.03 847 25.01 0.4 32.7 93 -0.6 31
04:10 1018 30.06 847 25.01 0.4 32.8 93 -0.5 31.1
04:15 1018 30.06 847 25.01 0.4 32.7 94 -0.5 31.1
04:20 1018 30.06 848 25.04 0.4 32.8 94 -0.5 31.1
04:25 1018 30.06 848 25.04 0.5 32.9 94 -0.4 31.3
04:30 1019 30.09 848 25.04 0.6 33 94 -0.3 31.4
04:35 1019 30.09 848 25.04 0.6 33.1 94 -0.3 31.4
04:40 1019 30.09 848 25.04 0.5 33 93 -0.4 31.3
04:45 1019 30.09 848 25.04 0.6 33 94 -0.3 31.4
04:50 1019 30.09 848 25.04 0.6 33.1 94 -0.3 31.5
04:55 1019 30.09 848 25.04 0.6 33.1 93 -0.4 31.3
05:00 1019 30.09 848 25.04 0.6 33.1 93 -0.3 31.4
05:05 1019 30.09 848 25.04 0.6 33.1 93 -0.3 31.4
05:10 1019 30.09 848 25.04 0.7 33.2 93 -0.3 31.5
05:15 1019 30.09 848 25.04 0.7 33.3 93 -0.2 31.6
05:20 1019 30.09 848 25.04 0.8 33.4 93 -0.2 31.6
05:25 1019 30.09 848 25.04 0.7 33.2 93 -0.3 31.4
05:30 1019 30.09 848 25.04 0.6 33.1 93 -0.4 31.3
05:35 1019 30.09 848 25.04 0.6 33.1 93 -0.3 31.4
05:40 1019 30.09 848 25.04 0.7 33.3 93 -0.3 31.5
05:45 1019 30.09 848 25.04 0.7 33.2 93 -0.3 31.5
05:50 1019 30.09 848 25.04 0.7 33.3 93 -0.3 31.5
05:55 1019 30.09 849 25.07 0.8 33.4 93 -0.2 31.7
06:00 1019 30.09 849 25.07 0.8 33.5 93 -0.2 31.7
06:05 1019 30.09 848 25.04 1 33.7 93 -0.1 31.9
06:10 1019 30.09 849 25.07 0.9 33.6 92 -0.3 31.5
06:15 1019 30.09 849 25.07 0.8 33.4 93 -0.3 31.5
06:20 1019 30.09 849 25.07 0.9 33.7 93 -0.1 31.8
06:25 1019 30.09 849 25.07 1 33.8 93 -0.1 31.8
06:30 1019 30.09 849 25.07 1 33.8 92 -0.1 31.8
06:35 1020 30.12 849 25.07 1 33.9 92 -0.1 31.9
06:40 1020 30.12 849 25.07 1.1 34 92 -0 32
06:45 1020 30.12 849 25.07 1.2 34.2 92 0 32.1
06:50 1020 30.12 849 25.07 1.4 34.5 92 0.2 32.3
06:55 1020 30.12 849 25.07 1.5 34.7 90 0.1 32.1
07:00 1020 30.12 849 25.07 1.4 34.4 91 0.1 32.1
07:05 1020 30.12 849 25.07 1.6 34.9 90 0.2 32.3
07:10 1020 30.12 849 25.07 1.8 35.2 90 0.2 32.4
07:15 1020 30.12 849 25.07 2 35.7 87 0.1 32.2
07:20 1020 30.12 849 25.07 2.3 36.1 86 0.2 32.4
07:25 1020 30.12 849 25.07 2.3 36.2 86 0.2 32.4
07:30 1020 30.12 849 25.07 2.3 36.1 87 0.3 32.5
07:35 1020 30.12 849 25.07 2.1 35.9 87 0.2 32.3
07:40 1020 30.12 849 25.07 2.2 36 87 0.3 32.6
07:45 1020 30.12 849 25.07 2.2 35.9 87 0.3 32.5
07:50 1020 30.12 849 25.07 2.1 35.7 88 0.2 32.4
07:55 1020 30.12 850 25.1 2 35.6 88 0.3 32.5
08:00 1020 30.12 850 25.1 2.1 35.7 88 0.2 32.4
08:05 1021 30.15 850 25.1 2 35.6 88 0.3 32.5
08:10 1020 30.12 850 25.1 1.7 35.1 90 0.2 32.4
08:15 1021 30.15 850 25.1 1.9 35.5 89 0.3 32.6
08:20 1021 30.15 850 25.1 1.9 35.3 90 0.4 32.6
08:25 1021 30.15 850 25.1 2 35.7 89 0.4 32.8
08:30 1021 30.15 850 25.1 2.3 36.1 88 0.5 33
08:35 1021 30.15 850 25.1 2.3 36.2 88 0.5 33
08:40 1021 30.15 850 25.1 2.4 36.4 87 0.6 33
08:45 1021 30.15 850 25.1 2.5 36.5 87 0.6 33.1
08:50 1021 30.15 850 25.1 2.4 36.3 87 0.4 32.8
08:55 1021 30.15 850 25.1 2.3 36.2 88 0.5 32.9
09:00 1021 30.15 850 25.1 2.5 36.4 88 0.6 33.2
09:05 1021 30.15 850 25.1 2.4 36.3 88 0.6 33.1
09:10 1021 30.15 850 25.1 2.5 36.6 86 0.5 32.9
09:15 1021 30.15 851 25.13 2.6 36.7 87 0.6 33.1
09:20 1022 30.18 851 25.13 2.7 36.8 86 0.6 33.1
09:25 1022 30.18 851 25.13 2.9 37.1 85 0.6 33.1
09:30 1022 30.18 851 25.13 3 37.4 83 0.4 32.8
09:35 1022 30.18 851 25.13 3.3 38 82 0.5 32.9
09:40 1022 30.18 851 25.13 3.5 38.3 82 0.8 33.4
09:45 1022 30.18 851 25.13 3.6 38.4 82 0.8 33.5
09:50 1022 30.18 851 25.13 3.1 37.5 85 0.7 33.3
09:55 1022 30.18 851 25.13 2.9 37.3 85 0.7 33.3
10:00 1022 30.18 851 25.13 2.9 37.2 85 0.7 33.2
10:05 1022 30.18 851 25.13 2.8 37.1 87 0.8 33.5
10:10 1022 30.18 851 25.13 2.8 37.1 86 0.7 33.3
10:15 1022 30.18 851 25.13 2.9 37.2 85 0.6 33.1
10:20 1022 30.18 851 25.13 3.3 37.9 83 0.7 33.3
10:25 1022 30.18 851 25.13 3.3 37.9 84 0.8 33.4
10:30 1022 30.18 851 25.13 3.3 37.9 84 0.7 33.3
10:35 1022 30.18 851 25.13 3.4 38.1 83 0.7 33.3
10:40 1022 30.18 851 25.13 3.4 38.1 82 0.6 33.2
10:45 1022 30.18 851 25.13 3.4 38.2 83 0.7 33.3
10:50 1022 30.18 851 25.13 3.5 38.2 81 0.5 32.9
10:55 1022 30.18 851 25.13 3.5 38.4 81 0.5 33
11:00 1022 30.18 851 25.13 3.4 38.2 81 0.5 32.9
11:05 1022 30.18 851 25.13 3.3 38 81 0.3 32.6
11:10 1022 30.18 851 25.13 3.2 37.8 81 0.4 32.6
11:15 1022 30.18 851 25.13 3.3 38 81 0.4 32.8
11:20 1022 30.18 851 25.13 3.4 38 81 0.3 32.6
11:25 1022 30.18 851 25.13 3.4 38.1 81 0.4 32.7
11:30 1022 30.18 851 25.13 3.3 38 82 0.5 32.9
11:35 1022 30.18 851 25.13 3.3 37.9 82 0.5 33
11:40 1022 30.18 851 25.13 3.5 38.3 80 0.4 32.7
11:45 1022 30.18 851 25.13 3.7 38.7 79 0.4 32.8
11:50 1022 30.18 851 25.13 4 39.2 75 0 32
11:55 1022 30.18 851 25.13 4.2 39.6 75 0.2 32.4
12:00 1022 30.18 851 25.13 4.4 40 74 0.1 32.2
12:05 1022 30.18 851 25.13 4.6 40.3 71 -0.2 31.6
12:10 1022 30.18 851 25.13 5 40.9 70 -0 31.9
12:15 1022 30.18 851 25.13 5.3 41.5 70 0.3 32.5
12:20 1022 30.18 851 25.13 5.1 41.2 69 -0.1 31.8
12:25 1022 30.18 851 25.13 4.9 40.9 69 -0.2 31.6
12:30 1022 30.18 851 25.13 4.9 40.8 70 -0.1 31.9
12:35 1022 30.18 851 25.13 4.8 40.6 70 -0.2 31.6
12:40 1022 30.18 851 25.13 5.1 41.2 69 -0.2 31.7
12:45 1022 30.18 851 25.13 5.1 41.2 69 -0.2 31.7
12:50 1022 30.18 851 25.13 5.1 41.2 70 0.1 32.1
12:55 1022 30.18 851 25.13 5.1 41.2 69 -0.1 31.8
13:00 1022 30.18 851 25.13 4.8 40.6 71 -0 32
13:05 1022 30.18 851 25.13 4.6 40.2 70 -0.4 31.3
13:10 1022 30.18 851 25.13 4.6 40.3 70 -0.4 31.4
13:15 1022 30.18 851 25.13 4.8 40.6 68 -0.6 30.9
13:20 1022 30.18 851 25.13 4.9 40.7 69 -0.3 31.4
13:25 1022 30.18 851 25.13 5.3 41.5 65 -0.8 30.5
13:30 1022 30.18 851 25.13 5.3 41.6 64 -1 30.2
13:35 1022 30.18 851 25.13 5.3 41.6 67 -0.3 31.4
13:40 1022 30.18 851 25.13 5.3 41.6 65 -0.7 30.7
13:45 1022 30.18 851 25.13 5.3 41.5 65 -0.7 30.7
13:50 1022 30.18 851 25.13 5.4 41.8 64 -0.8 30.6
13:55 1022 30.18 851 25.13 5.3 41.6 65 -0.7 30.7
14:00 1022 30.18 851 25.13 5.3 41.6 64 -1 30.2
14:05 1022 30.18 851 25.13 5.5 41.9 64 -0.8 30.5
14:10 1022 30.18 851 25.13 5.9 42.5 59 -1.5 29.4
14:15 1022 30.18 851 25.13 5.9 42.6 62 -0.8 30.6
14:20 1022 30.18 851 25.13 6 42.7 62 -0.8 30.5
14:25 1022 30.18 851 25.13 6.2 43.2 56 -2 28.4
14:30 1022 30.18 851 25.13 6.1 43 53 -2.6 27.3
14:35 1022 30.18 851 25.13 6.2 43.1 54 -2.5 27.6
14:40 1022 30.18 851 25.13 6.7 44 54 -2.1 28.3
14:45 1022 30.18 851 25.13 7.1 44.7 51 -2.4 27.7
14:50 1022 30.18 851 25.13 6.5 43.7 51 -3 26.6
14:55 1022 30.18 851 25.13 6.7 44.1 51 -2.8 27
15:00 1022 30.18 851 25.13 6.8 44.2 52 -2.4 27.7
15:05 1022 30.18 851 25.13 6.7 44.1 52 -2.6 27.4
15:10 1022 30.18 851 25.13 6.8 44.2 53 -2.1 28.2
15:15 1022 30.18 851 25.13 6.7 44.1 53 -2.2 28
15:20 1022 30.18 851 25.13 6.7 44.1 54 -2 28.5
15:25 1022 30.18 851 25.13 6.8 44.3 54 -1.9 28.6
15:30 1022 30.18 851 25.13 6.9 44.4 56 -1.4 29.5
15:35 1022 30.18 851 25.13 7 44.6 54 -1.5 29.2
15:40 1022 30.18 851 25.13 6.7 44.1 55 -1.6 29.1
15:45 1022 30.18 851 25.13 6.8 44.3 56 -1.4 29.5
15:50 1022 30.18 851 25.13 6.7 44.1 56 -1.5 29.3
15:55 1022 30.18 851 25.13 6.9 44.4 55 -1.4 29.4
16:00 1022 30.18 851 25.13 6.9 44.5 56 -1.1 29.9
16:05 1022 30.18 851 25.13 7 44.7 56 -1.1 30
16:10 1022 30.18 851 25.13 7 44.7 53 -1.8 28.7
16:15 1022 30.18 851 25.13 6.8 44.2 55 -1.6 29.1
16:20 1022 30.18 851 25.13 6.8 44.3 55 -1.6 29.1
16:25 1022 30.18 851 25.13 7 44.6 54 -1.7 28.9
16:30 1022 30.18 851 25.13 7 44.7 54 -1.6 29.2
16:35 1022 30.18 851 25.13 7.1 44.8 54 -1.7 29
16:40 1022 30.18 851 25.13 7.2 44.9 55 -1.1 30
16:45 1022 30.18 851 25.13 7.4 45.3 53 -1.7 29
16:50 1022 30.18 851 25.13 7.4 45.3 52 -1.8 28.8
16:55 1022 30.18 851 25.13 7.4 45.4 53 -1.6 29.1
17:00 1022 30.18 851 25.13 7.4 45.2 52 -1.9 28.6
17:05 1022 30.18 851 25.13 7.3 45.1 52 -2 28.4
17:10 1022 30.18 851 25.13 7.3 45.2 49 -2.6 27.3
17:15 1022 30.18 851 25.13 7.4 45.3 51 -2.2 28.1
17:20 1022 30.18 851 25.13 7.3 45.1 50 -2.4 27.6
17:25 1022 30.18 851 25.13 7.5 45.6 51 -2 28.4
17:30 1022 30.18 851 25.13 7.5 45.5 51 -2.1 28.2
17:35 1022 30.18 851 25.13 7.4 45.3 52 -1.8 28.8
17:40 1022 30.18 851 25.13 7.6 45.6 50 -2.3 27.9
17:45 1022 30.18 851 25.13 7.6 45.6 51 -2 28.4
17:50 1022 30.18 851 25.13 7.4 45.3 52 -1.9 28.6
17:55 1021 30.15 851 25.13 7.3 45.2 52 -1.8 28.7
18:00 1022 30.18 851 25.13 7.4 45.3 50 -2.3 27.9
18:05 1022 30.18 851 25.13 7.4 45.4 51 -2 28.4
18:10 1022 30.18 851 25.13 7.4 45.3 52 -1.8 28.7
18:15 1022 30.18 851 25.13 7.4 45.4 50 -2.3 27.8
18:20 1022 30.18 851 25.13 7.4 45.3 52 -1.9 28.5
18:25 1022 30.18 851 25.13 7.3 45.1 51 -2.1 28.2
18:30 1022 30.18 851 25.13 7.2 45 51 -2.3 27.9
18:35 1022 30.18 851 25.13 7.1 44.8 51 -2.2 28
18:40 1022 30.18 851 25.13 7 44.7 51 -2.4 27.6
18:45 1022 30.18 851 25.13 7 44.6 52 -2.1 28.2
18:50 1022 30.18 851 25.13 7 44.6 51 -2.6 27.4
18:55 1022 30.18 851 25.13 7.1 44.7 50 -2.8 27
19:00 1022 30.18 851 25.13 7.1 44.7 50 -2.6 27.4
19:05 1022 30.18 851 25.13 7.2 44.9 52 -2 28.4
19:10 1022 30.18 851 25.13 7.2 44.9 52 -2.1 28.3
19:15 1022 30.18 851 25.13 7 44.6 52 -2.2 28.1
19:20 1022 30.18 851 25.13 6.9 44.4 52 -2.3 27.8
19:25 1022 30.18 851 25.13 6.8 44.3 53 -2.1 28.1
19:30 1022 30.18 851 25.13 6.8 44.2 54 -1.9 28.6
19:35 1022 30.18 851 25.13 6.8 44.2 53 -2 28.3
19:40 1022 30.18 851 25.13 6.7 44.1 54 -2 28.4
19:45 1022 30.18 851 25.13 6.6 43.9 54 -2.1 28.2
19:50 1022 30.18 851 25.13 6.6 43.8 53 -2.2 28
19:55 1022 30.18 851 25.13 6.5 43.6 53 -2.3 27.8
20:00 1022 30.18 851 25.13 6.4 43.5 55 -2 28.3
20:05 1022 30.18 851 25.13 6.4 43.4 56 -1.7 28.9
20:10 1022 30.18 851 25.13 6.3 43.3 57 -1.7 29
20:15 1022 30.18 851 25.13 6.1 43.1 57 -1.7 29
20:20 1022 30.18 851 25.13 6 42.8 58 -1.7 29
20:25 1022 30.18 851 25.13 5.9 42.6 58 -1.6 29.1
20:30 1022 30.18 851 25.13 5.8 42.4 58 -1.8 28.7
20:35 1022 30.18 851 25.13 5.7 42.3 59 -1.7 29
20:40 1022 30.18 851 25.13 5.6 42.2 60 -1.6 29.2
20:45 1022 30.18 851 25.13 5.6 42 60 -1.6 29.1
20:50 1022 30.18 851 25.13 5.4 41.8 61 -1.6 29.2
20:55 1022 30.18 851 25.13 5.3 41.5 61 -1.6 29.1
21:00 1022 30.18 851 25.13 5.2 41.4 62 -1.5 29.2
21:05 1022 30.18 851 25.13 5.1 41.2 62 -1.5 29.3
21:10 1022 30.18 851 25.13 5 41 62 -1.6 29.1
21:15 1022 30.18 851 25.13 5 41 63 -1.5 29.3
21:20 1022 30.18 851 25.13 4.9 40.8 64 -1.4 29.4
21:25 1022 30.18 851 25.13 4.8 40.6 64 -1.4 29.5
21:30 1022 30.18 851 25.13 4.7 40.5 63 -1.6 29.1
21:35 1022 30.18 851 25.13 4.8 40.6 63 -1.6 29.1
21:40 1022 30.18 851 25.13 4.8 40.7 63 -1.7 29
21:45 1022 30.18 851 25.13 4.8 40.6 63 -1.7 29
21:50 1022 30.18 851 25.13 4.7 40.5 63 -1.8 28.8
21:55 1022 30.18 851 25.13 4.7 40.5 63 -1.8 28.8
22:00 1022 30.18 851 25.13 4.6 40.2 64 -1.7 28.9
22:05 1022 30.18 851 25.13 4.4 40 64 -1.8 28.8
22:10 1022 30.18 851 25.13 4.4 39.9 64 -1.7 28.9
22:15 1022 30.18 851 25.13 4.3 39.8 64 -1.8 28.8
22:20 1022 30.18 851 25.13 4.4 39.9 64 -1.8 28.7
22:25 1022 30.18 851 25.13 4.4 39.9 64 -1.8 28.8
22:30 1022 30.18 851 25.13 4.3 39.8 64 -1.8 28.8
22:35 1022 30.18 851 25.13 4.3 39.7 65 -1.8 28.7
22:40 1022 30.18 851 25.13 4.2 39.6 64 -1.9 28.6
22:45 1022 30.18 851 25.13 4.2 39.6 65 -1.8 28.7
22:50 1022 30.18 851 25.13 4 39.1 66 -1.9 28.6
22:55 1022 30.18 851 25.13 3.8 38.9 66 -2 28.4
23:00 1022 30.18 851 25.13 3.9 38.9 66 -2 28.5
23:05 1022 30.18 851 25.13 3.7 38.6 67 -1.9 28.6
23:10 1022 30.18 851 25.13 3.6 38.4 67 -1.9 28.5
23:15 1022 30.18 851 25.13 3.5 38.4 67 -1.9 28.5
23:20 1022 30.18 851 25.13 3.5 38.3 67 -2 28.4
23:25 1022 30.18 851 25.13 3.4 38.2 67 -2 28.3
23:30 1022 30.18 851 25.13 3.4 38 68 -2 28.5
23:35 1022 30.18 851 25.13 3.3 37.9 68 -2 28.3
23:40 1022 30.18 851 25.13 3.3 37.9 69 -1.9 28.5
23:45 1022 30.18 851 25.13 3.2 37.7 68 -2 28.3
23:50 1022 30.18 851 25.13 3.2 37.8 69 -2 28.5
23:55 1022 30.18 851 25.13 3.3 37.9 68 -2 28.4
24:00 1022 30.18 851 25.13 3.2 37.8 68 -2 28.3